LHA44U EDLW-EDDB

Flight info

Callsign LHA44U
Flight time N/A
Altitude 23000
Route OSN8Q/06 OSN DCT MOBSA L980 SAS T207 OGBER
Aircraft A320/M-SDE1E2FGIJ1RWYZE3/LB1

Departure

Time 2026-04-28 19:09
Airport Dortmund Airport (EDLW)

Arrival

Time N/A
Airport Berlin Brandenburg Airport (EDDB)
Time Latitude Longitude Altitude Speed Heading
2026-04-28 18:50 51.51541 7.61161 424 ft 0 kts 331°
2026-04-28 19:06 51.51546 7.61157 428 ft 3 kts 332°
2026-04-28 19:06 51.51557 7.61147 424 ft 3 kts 332°
2026-04-28 19:06 51.51589 7.61070 432 ft 9 kts 261°
2026-04-28 19:06 51.51560 7.60965 424 ft 13 kts 242°
2026-04-28 19:07 51.51510 7.60821 422 ft 17 kts 241°
2026-04-28 19:07 51.51453 7.60659 416 ft 11 kts 240°
2026-04-28 19:07 51.51428 7.60590 414 ft 0 kts 240°
2026-04-28 19:07 51.51424 7.60578 423 ft 7 kts 240°
2026-04-28 19:08 51.51372 7.60428 415 ft 19 kts 241°
2026-04-28 19:08 51.51397 7.60275 413 ft 17 kts 328°
2026-04-28 19:08 51.51499 7.60281 413 ft 16 kts 50°
2026-04-28 19:08 51.51626 7.60635 414 ft 74 kts 60°
2026-04-28 19:09 51.52011 7.61721 429 ft 143 kts 60°
2026-04-28 19:09 51.52515 7.63163 1039 ft 155 kts 62°
2026-04-28 19:09 51.53052 7.64727 1847 ft 164 kts 61°
2026-04-28 19:09 51.53633 7.66397 2273 ft 181 kts 62°
2026-04-28 19:10 51.54291 7.68284 2574 ft 206 kts 62°
2026-04-28 19:10 51.55035 7.70407 3017 ft 228 kts 62°
2026-04-28 19:10 51.55835 7.72674 3774 ft 237 kts 61°
2026-04-28 19:10 51.56657 7.74994 4642 ft 241 kts 62°
2026-04-28 19:11 51.57556 7.77326 5412 ft 250 kts 57°
2026-04-28 19:11 51.58802 7.79324 6208 ft 261 kts 31°
2026-04-28 19:11 51.60579 7.80043 7061 ft 270 kts
2026-04-28 19:11 51.62466 7.79787 7926 ft 275 kts 353°
2026-04-28 19:12 51.64346 7.79108 8754 ft 279 kts 347°
2026-04-28 19:12 51.66233 7.78279 9600 ft 282 kts 346°
2026-04-28 19:12 51.68138 7.77430 10402 ft 286 kts 347°
2026-04-28 19:12 51.70118 7.76585 10759 ft 306 kts 347°
2026-04-28 19:13 51.72264 7.75728 10969 ft 329 kts 348°
2026-04-28 19:13 51.74554 7.74861 11332 ft 344 kts 349°
2026-04-28 19:13 51.76915 7.74096 11992 ft 348 kts 355°
2026-04-28 19:13 51.79326 7.74146 12722 ft 348 kts
2026-04-28 19:14 51.81671 7.75111 13415 ft 350 kts 22°
2026-04-28 19:14 51.83823 7.76939 14125 ft 351 kts 36°
2026-04-28 19:14 51.85708 7.79460 14777 ft 353 kts 41°
2026-04-28 19:14 51.87560 7.82094 15353 ft 357 kts 41°
2026-04-28 19:15 51.89431 7.84754 16025 ft 358 kts 40°
2026-04-28 19:15 51.91316 7.87426 16605 ft 363 kts 40°
2026-04-28 19:15 51.93234 7.90144 17199 ft 366 kts 40°
2026-04-28 19:15 51.94496 7.91937 17614 ft 368 kts 40°
2026-04-28 19:16 51.97092 7.95631 18345 ft 374 kts 40°
2026-04-28 19:16 51.99052 7.98428 18906 ft 377 kts 40°
2026-04-28 19:16 52.01031 8.01254 19379 ft 381 kts 40°
2026-04-28 19:16 52.02809 8.04382 20160 ft 368 kts 54°
2026-04-28 19:17 52.03882 8.07882 20904 ft 341 kts 70°
2026-04-28 19:17 52.04573 8.11589 21715 ft 335 kts 70°
2026-04-28 19:17 52.05224 8.15137 22526 ft 329 kts 70°
2026-04-28 19:17 52.05884 8.18745 23108 ft 332 kts 70°
2026-04-28 19:18 52.06543 8.22352 23256 ft 342 kts 70°
2026-04-28 19:18 52.07219 8.26071 23277 ft 344 kts 71°
2026-04-28 19:18 52.07896 8.29811 23276 ft 345 kts 71°
2026-04-28 19:18 52.08570 8.33555 23285 ft 345 kts 71°
2026-04-28 19:19 52.09243 8.37299 23300 ft 345 kts 71°
2026-04-28 19:19 52.09919 8.41059 23285 ft 347 kts 71°
2026-04-28 19:19 52.10595 8.44835 23281 ft 348 kts 71°
2026-04-28 19:19 52.11270 8.48618 23284 ft 349 kts 71°
2026-04-28 19:20 52.11948 8.52404 23284 ft 349 kts 71°
2026-04-28 19:20 52.12625 8.56191 23284 ft 349 kts 71°
2026-04-28 19:20 52.13301 8.59976 23283 ft 348 kts 71°
2026-04-28 19:20 52.13977 8.63766 23285 ft 348 kts 71°
2026-04-28 19:21 52.14649 8.67554 23285 ft 348 kts 71°
2026-04-28 19:21 52.15318 8.71346 23285 ft 348 kts 71°
2026-04-28 19:21 52.15986 8.75136 23290 ft 349 kts 71°
2026-04-28 19:21 52.16655 8.78932 23292 ft 349 kts 71°
2026-04-28 19:22 52.17323 8.82729 23289 ft 349 kts 71°
2026-04-28 19:22 52.17547 8.84009 23291 ft 349 kts 71°
2026-04-28 19:22 52.18653 8.90317 23310 ft 349 kts 71°
2026-04-28 19:22 52.19094 8.92834 23312 ft 349 kts 71°
2026-04-28 19:23 52.19981 8.97924 23303 ft 349 kts 71°
2026-04-28 19:23 52.20417 9.00441 23301 ft 349 kts 71°
2026-04-28 19:23 52.21075 9.04251 23301 ft 349 kts 71°
2026-04-28 19:23 52.21732 9.08054 23292 ft 349 kts 71°
2026-04-28 19:24 52.22390 9.11865 23299 ft 349 kts 71°
2026-04-28 19:24 52.23049 9.15673 23297 ft 349 kts 71°
2026-04-28 19:24 52.23916 9.20717 23297 ft 349 kts 71°
2026-04-28 19:24 52.24358 9.23289 23295 ft 349 kts 71°
2026-04-28 19:25 52.25011 9.27103 23293 ft 349 kts 71°
2026-04-28 19:25 52.25664 9.30914 23302 ft 349 kts 71°
2026-04-28 19:25 52.26316 9.34729 23302 ft 349 kts 71°
2026-04-28 19:25 52.26967 9.38543 23317 ft 349 kts 71°
2026-04-28 19:26 52.27615 9.42359 23315 ft 349 kts 71°
2026-04-28 19:26 52.28263 9.46174 23317 ft 349 kts 71°
2026-04-28 19:26 52.28909 9.49993 23319 ft 349 kts 71°
2026-04-28 19:26 52.29554 9.53815 23323 ft 349 kts 71°
2026-04-28 19:27 52.30197 9.57633 23340 ft 349 kts 72°
2026-04-28 19:27 52.30838 9.61453 23340 ft 349 kts 71°
2026-04-28 19:27 52.31477 9.65276 23347 ft 349 kts 72°
2026-04-28 19:27 52.32108 9.69047 23342 ft 349 kts 72°
2026-04-28 19:28 52.32754 9.72923 23342 ft 349 kts 72°
2026-04-28 19:28 52.33381 9.76699 23339 ft 349 kts 72°
2026-04-28 19:28 52.34017 9.80524 23348 ft 349 kts 72°
2026-04-28 19:28 52.34664 9.84398 23341 ft 349 kts 72°
2026-04-28 19:29 52.35293 9.88177 23348 ft 349 kts 72°
2026-04-28 19:29 52.35720 9.90761 23352 ft 349 kts 72°
2026-04-28 19:29 52.36553 9.95829 23370 ft 348 kts 72°
2026-04-28 19:29 52.37179 9.99649 23354 ft 348 kts 72°
2026-04-28 19:30 52.37807 10.03474 23337 ft 348 kts 72°
2026-04-28 19:30 52.38433 10.07299 23328 ft 348 kts 72°
2026-04-28 19:30 52.39058 10.11131 23331 ft 348 kts 72°
2026-04-28 19:30 52.39680 10.14960 23330 ft 348 kts 72°
2026-04-28 19:31 52.40300 10.18794 23342 ft 348 kts 72°
2026-04-28 19:31 52.40920 10.22630 23342 ft 348 kts 72°
2026-04-28 19:31 52.41541 10.26459 23337 ft 348 kts 72°
2026-04-28 19:31 52.42163 10.30298 23339 ft 348 kts 72°
2026-04-28 19:32 52.42780 10.34133 23326 ft 348 kts 72°
2026-04-28 19:32 52.43394 10.37973 23330 ft 348 kts 72°